Weather History for KPVD - December, 2013

Change the Weather History Date:

Sunday, December 29, 2013

  Actual Average Record
Temperature  
Mean Temperature 38 °F 31 °F  
Max Temperature 48 °F 39 °F 70 °F (1984)
Min Temperature 28 °F 23 °F -10 °F (1933)
Degree Days  
Heating Degree Days 27 34  
Month to date heating degree days 899 882  
Since 1 July heating degree days 2002 1957  
Cooling Degree Days 0 0  
Month to date cooling degree days 0 0  
Year to date cooling degree days 892 744  
Moisture  
Dew Point 36 °F    
Average Humidity 85    
Maximum Humidity 100    
Minimum Humidity 70    
Precipitation  
Precipitation 1.23 in 0.12 in 1.54 in (1945)
Month to date precipitation 4.82 4.00  
Year to date precipitation 45.46 46.96  
Snow  
Snow 0.00 in 0.30 in 8.30 in (1945)
Month to date snowfall 7.0 8.0  
Since 1 July snowfall 7.1 9.5  
Snow Depth 0.00 in    
Sea Level Pressure  
Sea Level Pressure 29.73 in    
Wind  
Wind Speed 6 mph (NNE)    
Max Wind Speed 22 mph    
Max Gust Speed 33 mph    
Visibility 6 miles    
Events Rain    
T = Trace of Precipitation, MM = Missing Value Source: NWS Daily Summary

Daily Weather History Graph

Daily Weather History Graph

Search for Another Location

Airport or City:

Trip Planner

Search our weather history database for the weather conditions in past years. The results will help you decide how hot, cold, wet, or windy it might be!

Date:

Astronomy

Dec. 29, 2013 Rise Set
Actual Time 7:12 AM EST 4:23 PM EST
Civil Twilight 6:40 AM EST 4:55 PM EST
Nautical Twilight 6:05 AM EST 5:30 PM EST
Astronomical Twilight 5:32 AM EST 6:03 PM EST
Moon 3:51 AM EST (12/29) 2:00 PM EST (12/29)
Length of Visible Light 10h 14m
Length of Day
9h 11m
Waning Crescent, 11% of the Moon is Illuminated
Dec 29
Waning Crescent
Jan 1
New
Jan 7
First Quarter
Jan 15
Full
Jan 24
Last Quarter

Hourly Weather History & Observations

Time (EST) Temp. Windchill Dew Point Humidity Pressure Visibility Wind Dir Wind Speed Gust Speed Precip Events Conditions
12:51 AM 32.0 °F 27.5 °F 27.0 °F 82% 30.04 in 10.0 mi South 4.6 mph - N/A   Clear
1:51 AM 28.9 °F 23.9 °F 26.1 °F 89% 30.04 in 9.0 mi SSW 4.6 mph - N/A   Clear
2:51 AM 30.0 °F - 27.0 °F 88% 30.05 in 8.0 mi Calm Calm - N/A   Clear
3:51 AM 30.9 °F - 28.0 °F 89% 30.04 in 9.0 mi Calm Calm - N/A   Clear
4:51 AM 30.9 °F - 28.0 °F 89% 30.02 in 8.0 mi Calm Calm - N/A   Clear
5:51 AM 32.0 °F - 28.9 °F 88% 30.02 in 7.0 mi Calm Calm - N/A   Mostly Cloudy
6:51 AM 35.1 °F - 30.0 °F 82% 30.02 in 10.0 mi Calm Calm - N/A   Overcast
7:51 AM 35.1 °F 32.2 °F 30.0 °F 82% 30.02 in 10.0 mi SSW 3.5 mph - N/A   Overcast
8:51 AM 37.9 °F - 32.0 °F 79% 30.03 in 10.0 mi Calm Calm - N/A   Overcast
9:51 AM 42.1 °F - 35.1 °F 76% 30.02 in 10.0 mi Calm Calm - N/A   Overcast
10:51 AM 42.1 °F 38.4 °F 35.1 °F 76% 29.97 in 10.0 mi South 5.8 mph - N/A   Overcast
11:51 AM 45.0 °F 43.5 °F 35.1 °F 68% 29.92 in 10.0 mi SSE 3.5 mph - 0.00 in Rain Light Rain
12:51 PM 45.0 °F 40.1 °F 36.0 °F 71% 29.91 in 10.0 mi WSW 9.2 mph - 0.01 in Rain Light Rain
1:51 PM 43.0 °F 41.3 °F 37.9 °F 82% 29.86 in 6.0 mi WSW 3.5 mph - 0.02 in Rain Light Rain
2:51 PM 41.0 °F 38.0 °F 39.0 °F 93% 29.81 in 6.0 mi East 4.6 mph - 0.06 in Rain Light Rain
3:51 PM 41.0 °F 35.8 °F 39.0 °F 93% 29.73 in 5.0 mi ENE 8.1 mph - 0.06 in Rain Light Rain
4:10 PM 41.0 °F 37.1 °F 39.2 °F 93% 29.71 in 4.0 mi East 5.8 mph - 0.03 in Rain Rain
4:40 PM 41.0 °F 36.4 °F 39.2 °F 93% 29.65 in 3.0 mi ENE 6.9 mph - 0.11 in Rain Rain
4:51 PM 41.0 °F 36.4 °F 39.9 °F 96% 29.64 in 2.5 mi NE 6.9 mph - 0.16 in Rain Rain
5:15 PM 41.0 °F 35.2 °F 39.2 °F 93% 29.59 in 2.5 mi ENE 9.2 mph - 0.12 in Rain Heavy Rain
5:31 PM 41.0 °F 36.4 °F 39.2 °F 93% 29.57 in 2.0 mi ENE 6.9 mph - 0.21 in Rain Heavy Rain
5:51 PM 41.0 °F 36.4 °F 41.0 °F 100% 29.53 in 2.0 mi East 6.9 mph - 0.33 in Rain Heavy Rain
6:24 PM 42.8 °F 38.0 °F 41.0 °F 93% 29.49 in 2.0 mi ENE 8.1 mph - 0.20 in Rain Heavy Rain
6:51 PM 43.0 °F 37.7 °F 42.1 °F 97% 29.47 in 2.0 mi NE 9.2 mph - 0.37 in Rain Heavy Rain
7:51 PM 42.1 °F 33.3 °F 41.0 °F 96% 29.40 in 2.5 mi NNE 19.6 mph - 0.17 in Rain Light Rain
8:14 PM 42.8 °F 33.8 °F 42.8 °F 100% 29.37 in 2.5 mi North 21.9 mph 27.6 mph 0.02 in Rain Light Rain
8:35 PM 42.8 °F 34.3 °F 42.8 °F 100% 29.37 in 2.5 mi North 19.6 mph 26.5 mph 0.03 in Rain Light Rain
8:51 PM 42.1 °F 34.5 °F 41.0 °F 96% 29.37 in 2.5 mi North 15.0 mph - 0.03 in Rain Light Rain
9:22 PM 42.8 °F 35.4 °F 41.0 °F 93% 29.36 in 4.0 mi North 15.0 mph - 0.01 in   Light Drizzle
9:51 PM 43.0 °F 36.0 °F 42.1 °F 97% 29.40 in 2.5 mi NNW 13.8 mph 23.0 mph 0.01 in Rain Light Rain
10:42 PM 39.2 °F 30.5 °F 37.4 °F 93% 29.47 in 3.0 mi NNW 16.1 mph 24.2 mph 0.01 in Rain Light Rain
10:46 PM 37.4 °F 28.2 °F - N/A% 29.47 in 2.5 mi NNW 16.1 mph 24.2 mph 0.01 in Rain Light Rain
10:51 PM 37.9 °F 28.9 °F 37.0 °F 97% 29.47 in 3.0 mi NNW 16.1 mph 25.3 mph 0.01 in Rain Light Rain
11:13 PM 39.2 °F 30.5 °F - N/A% 29.49 in 10.0 mi NNW 16.1 mph 21.9 mph 0.00 in   Light Drizzle
11:51 PM 39.0 °F 31.4 °F 37.9 °F 96% 29.53 in 10.0 mi NNW 12.7 mph 21.9 mph 0.00 in   Mostly Cloudy